Location: Colonial Observatory
(40.1250°N, 75.3100°W)
Time: 22:21:25
(UTC-05:00)

Tiangong 2 - Visible Passes

Search period start: 17 February 2018 00:00
Search period end: 27 February 2018 00:00
Orbit: 385 x 388 km, 42.8° (Epoch: 17 February)

Date Brightness Start Highest point End Pass type
(mag) Time Alt. Az. Time Alt. Az. Time Alt. Az.
17 Feb 1.6 18:06:38 10° W 18:09:44 50° N 18:12:51 10° ENE visible
17 Feb 3.1 19:43:32 10° WNW 19:45:13 28° WNW 19:45:13 28° WNW visible
18 Feb 1.3 18:44:36 10° WNW 18:47:44 58° N 18:49:09 28° ENE visible
19 Feb 1.3 19:22:27 10° WNW 19:25:23 67° WSW 19:25:23 67° WSW visible
20 Feb 1.0 18:23:29 10° WNW 18:26:41 78° NNE 18:29:25 13° ESE visible
20 Feb 4.0 20:00:36 10° W 20:01:42 17° WSW 20:01:42 17° WSW visible
21 Feb 2.1 19:01:25 10° W 19:04:26 42° SSW 19:05:49 25° SSE visible
22 Feb 3.8 19:40:10 10° WSW 19:41:55 14° SW 19:42:20 14° SSW visible
23 Feb 3.2 18:40:30 10° W 18:43:08 24° SSW 18:45:47 10° SSE visible
25 Feb 4.0 18:20:03 10° WSW 18:21:45 14° SW 18:23:26 10° S visible
